{"data":{"norad_id":65520,"epoch":"2026-05-25T03:49:36.717600Z","epoch_age_seconds":68496,"freshness":"FRESH","line1":"1 65520U 25200A   26145.15945275  .00003478  00000+0  24497-3 0  9993","line2":"2 65520  97.4484 214.7455 0003632 162.2413 197.8942 15.05652749 40634","mean_motion":15.05652749,"eccentricity":0.0003632,"inclination_deg":97.4484,"raan_deg":214.7455,"arg_perigee_deg":162.2413,"mean_anomaly_deg":197.8942,"bstar":0.00024497,"rev_number":4063,"period_min":95.63958229787,"perigee_km":546.98660302003,"apogee_km":552.01884051393,"semimajor_km":6927.639721767,"source":"CELESTRAK","updated_at":"2026-05-25T13:38:20.845883Z"}}